Time,TemperatureF,DewpointF,PressureIn,WindDirection,WindDirectionDegrees,WindSpeedMPH,WindSpeedGustMPH,Humidity,HourlyPrecipIn,Conditions,Clouds,dailyrainin,SoftwareType,DateUTC
2013-01-06 00:00:00,34.7,27.3,30.16,East,94,0.0,20.0,74,0.00,,,0.01,WUHU216DAVISVP2,2013-01-06 05:00:00,
2013-01-06 00:01:00,34.7,27.3,30.16,West,266,4.0,20.0,74,0.00,,,0.01,WUHU216DAVISVP2,2013-01-06 05:01:00,
2013-01-06 00:03:00,34.7,27.3,30.16,WSW,257,2.0,20.0,74,0.00,,,0.01,WUHU216DAVISVP2,2013-01-06 05:03:00,
2013-01-06 00:07:00,34.6,27.2,30.16,WSW,240,4.0,14.0,74,0.00,,,0.00,WUHU216DAVISVP2,2013-01-06 05:07:00,
2013-01-06 00:12:00,34.7,27.3,30.16,WNW,284,6.0,10.0,74,0.00,,,0.00,WUHU216DAVISVP2,2013-01-06 05:12:00,
2013-01-06 00:17:00,34.7,27.3,30.16,WSW,246,4.0,12.0,74,0.00,,,0.00,WUHU216DAVISVP2,2013-01-06 05:17:00,
2013-01-06 00:22:00,34.7,27.6,30.16,West,261,6.0,18.0,75,0.00,,,0.00,WUHU216DAVISVP2,2013-01-06 05:22:00,
2013-01-06 00:27:00,34.7,27.6,30.16,SW,232,8.0,18.0,75,0.00,,,0.00,WUHU216DAVISVP2,2013-01-06 05:27:00,
2013-01-06 00:32:00,34.6,27.8,30.15,WSW,255,4.0,18.0,76,0.00,,,0.00,WUHU216DAVISVP2,2013-01-06 05:32:00,
2013-01-06 00:37:00,34.7,27.6,30.15,WSW,247,6.0,18.0,75,0.00,,,0.00,WUHU216DAVISVP2,2013-01-06 05:37:00,
2013-01-06 00:42:00,34.7,27.9,30.15,SW,236,8.0,18.0,76,0.00,,,0.00,WUHU216DAVISVP2,2013-01-06 05:42:00,
2013-01-06 00:47:00,34.6,27.8,30.15,West,281,2.0,18.0,76,0.00,,,0.00,WUHU216DAVISVP2,2013-01-06 05:47:00,
2013-01-06 00:52:00,34.6,28.2,30.15,WSW,243,2.0,10.0,77,0.00,,,0.00,WUHU216DAVISVP2,2013-01-06 05:52:00,
2013-01-06 00:57:00,34.5,28.1,30.15,SSW,200,4.0,12.0,77,0.00,,,0.00,WUHU216DAVISVP2,2013-01-06 05:57:00,
2013-01-06 01:02:00,34.6,27.8,30.14,WSW,246,4.0,12.0,76,0.00,,,0.00,WUHU216DAVISVP2,2013-01-06 06:02:00,
2013-01-06 01:07:00,34.6,28.2,30.14,West,260,6.0,10.0,77,0.00,,,0.00,WUHU216DAVISVP2,2013-01-06 06:07:00,
2013-01-06 01:12:00,34.5,28.1,30.14,SSW,208,0.0,12.0,77,0.00,,,0.00,WUHU216DAVISVP2,2013-01-06 06:12:00,
2013-01-06 01:17:00,34.5,28.4,30.14,WSW,252,10.0,14.0,78,0.00,,,0.00,WUHU216DAVISVP2,2013-01-06 06:17:00,
2013-01-06 01:22:00,34.5,28.4,30.14,SW,226,4.0,14.0,78,0.00,,,0.00,WUHU216DAVISVP2,2013-01-06 06:22:00,
2013-01-06 01:27:00,34.4,28.6,30.13,WNW,286,8.0,10.0,79,0.00,,,0.00,WUHU216DAVISVP2,2013-01-06 06:27:00,
2013-01-06 01:32:00,34.4,28.6,30.13,West,277,6.0,14.0,79,0.00,,,0.00,WUHU216DAVISVP2,2013-01-06 06:32:00,
2013-01-06 01:37:00,34.3,28.5,30.13,NW,306,2.0,14.0,79,0.00,,,0.00,WUHU216DAVISVP2,2013-01-06 06:37:00,
2013-01-06 01:43:00,34.3,28.5,30.13,SSW,202,2.0,18.0,79,0.00,,,0.00,WUHU216DAVISVP2,2013-01-06 06:43:00,
2013-01-06 01:48:00,34.3,28.5,30.13,SSW,211,0.0,18.0,79,0.00,,,0.00,WUHU216DAVISVP2,2013-01-06 06:48:00,
2013-01-06 01:53:00,34.2,28.4,30.13,WSW,245,8.0,12.0,79,0.00,,,0.00,WUHU216DAVISVP2,2013-01-06 06:53:00,
2013-01-06 01:58:00,34.3,28.5,30.13,SW,216,2.0,18.0,79,0.00,,,0.00,WUHU216DAVISVP2,2013-01-06 06:58:00,
2013-01-06 02:03:00,34.4,28.3,30.13,SSW,208,0.0,18.0,78,0.00,,,0.00,WUHU216DAVISVP2,2013-01-06 07:03:00,
2013-01-06 02:08:00,34.4,28.3,30.13,SSW,209,8.0,14.0,78,0.00,,,0.00,WUHU216DAVISVP2,2013-01-06 07:08:00,
2013-01-06 02:13:00,34.4,28.3,30.13,West,272,0.0,22.0,78,0.00,,,0.00,WUHU216DAVISVP2,2013-01-06 07:13:00,
2013-01-06 02:18:00,34.5,28.4,30.13,South,177,10.0,22.0,78,0.00,,,0.00,WUHU216DAVISVP2,2013-01-06 07:18:00,
2013-01-06 02:23:00,34.6,28.5,30.13,South,169,4.0,16.0,78,0.00,,,0.00,WUHU216DAVISVP2,2013-01-06 07:23:00,
2013-01-06 02:28:00,34.6,28.5,30.12,SW,217,10.0,14.0,78,0.00,,,0.00,WUHU216DAVISVP2,2013-01-06 07:28:00,
2013-01-06 02:33:00,34.6,28.5,30.12,West,259,10.0,14.0,78,0.00,,,0.00,WUHU216DAVISVP2,2013-01-06 07:33:00,
2013-01-06 02:38:00,34.6,28.5,30.12,WSW,254,0.0,14.0,78,0.00,,,0.00,WUHU216DAVISVP2,2013-01-06 07:38:00,
2013-01-06 02:43:00,34.5,28.4,30.12,SW,228,2.0,14.0,78,0.00,,,0.00,WUHU216DAVISVP2,2013-01-06 07:43:00,
2013-01-06 02:48:00,34.5,28.4,30.12,WSW,241,6.0,12.0,78,0.00,,,0.00,WUHU216DAVISVP2,2013-01-06 07:48:00,
2013-01-06 02:53:00,34.5,28.7,30.12,SSW,198,10.0,12.0,79,0.00,,,0.00,WUHU216DAVISVP2,2013-01-06 07:53:00,
2013-01-06 02:58:00,34.4,28.3,30.12,ENE,71,4.0,12.0,78,0.00,,,0.00,WUHU216DAVISVP2,2013-01-06 07:58:00,
2013-01-06 03:03:00,34.4,28.3,30.12,WSW,239,6.0,10.0,78,0.00,,,0.00,WUHU216DAVISVP2,2013-01-06 08:03:00,
2013-01-06 03:08:00,34.4,28.6,30.12,West,273,4.0,16.0,79,0.00,,,0.00,WUHU216DAVISVP2,2013-01-06 08:08:00,
2013-01-06 03:13:00,34.4,28.6,30.12,SW,227,8.0,16.0,79,0.00,,,0.00,WUHU216DAVISVP2,2013-01-06 08:13:00,
2013-01-06 03:18:00,34.4,28.6,30.12,WSW,242,2.0,16.0,79,0.00,,,0.00,WUHU216DAVISVP2,2013-01-06 08:18:00,
2013-01-06 03:24:00,34.3,28.5,30.12,WSW,255,4.0,14.0,79,0.00,,,0.00,WUHU216DAVISVP2,2013-01-06 08:24:00,
2013-01-06 03:29:00,34.2,28.4,30.12,South,169,8.0,10.0,79,0.00,,,0.00,WUHU216DAVISVP2,2013-01-06 08:29:00,
2013-01-06 03:34:00,34.3,28.5,30.11,SW,221,4.0,12.0,79,0.00,,,0.00,WUHU216DAVISVP2,2013-01-06 08:34:00,
2013-01-06 03:39:00,34.3,28.5,30.11,WSW,248,8.0,14.0,79,0.00,,,0.00,WUHU216DAVISVP2,2013-01-06 08:39:00,
2013-01-06 03:44:00,34.3,28.5,30.10,SW,227,6.0,14.0,79,0.00,,,0.00,WUHU216DAVISVP2,2013-01-06 08:44:00,
2013-01-06 03:49:00,34.3,28.8,30.10,SW,216,8.0,20.0,80,0.00,,,0.00,WUHU216DAVISVP2,2013-01-06 08:49:00,
2013-01-06 03:54:00,34.4,28.9,30.10,WSW,253,2.0,20.0,80,0.00,,,0.00,WUHU216DAVISVP2,2013-01-06 08:54:00,
2013-01-06 03:59:00,34.4,28.9,30.10,West,266,8.0,18.0,80,0.00,,,0.00,WUHU216DAVISVP2,2013-01-06 08:59:00,
2013-01-06 04:04:00,34.4,28.9,30.10,West,261,2.0,14.0,80,0.00,,,0.00,WUHU216DAVISVP2,2013-01-06 09:04:00,
2013-01-06 04:09:00,34.4,28.9,30.10,SW,227,4.0,16.0,80,0.00,,,0.00,WUHU216DAVISVP2,2013-01-06 09:09:00,
2013-01-06 04:14:00,34.4,28.9,30.09,WSW,246,4.0,16.0,80,0.00,,,0.00,WUHU216DAVISVP2,2013-01-06 09:14:00,
2013-01-06 04:19:00,34.4,28.9,30.09,South,181,0.0,18.0,80,0.00,,,0.00,WUHU216DAVISVP2,2013-01-06 09:19:00,
2013-01-06 04:24:00,34.4,28.9,30.09,SSW,197,2.0,18.0,80,0.00,,,0.00,WUHU216DAVISVP2,2013-01-06 09:24:00,
2013-01-06 04:29:00,34.4,28.9,30.09,WSW,238,2.0,18.0,80,0.00,,,0.00,WUHU216DAVISVP2,2013-01-06 09:29:00,
2013-01-06 04:34:00,34.4,28.9,30.09,SSW,211,14.0,18.0,80,0.00,,,0.00,WUHU216DAVISVP2,2013-01-06 09:34:00,
2013-01-06 04:39:00,34.5,29.0,30.09,SSE,156,6.0,20.0,80,0.00,,,0.00,WUHU216DAVISVP2,2013-01-06 09:39:00,
2013-01-06 04:44:00,34.5,29.0,30.09,SW,228,4.0,20.0,80,0.00,,,0.00,WUHU216DAVISVP2,2013-01-06 09:44:00,
2013-01-06 04:49:00,34.4,28.9,30.09,SSW,207,12.0,16.0,80,0.00,,,0.00,WUHU216DAVISVP2,2013-01-06 09:49:00,
2013-01-06 04:54:00,34.4,29.2,30.08,WSW,240,6.0,16.0,81,0.00,,,0.00,WUHU216DAVISVP2,2013-01-06 09:54:00,
2013-01-06 04:59:00,34.3,29.4,30.08,WSW,244,8.0,16.0,82,0.00,,,0.00,WUHU216DAVISVP2,2013-01-06 09:59:00,
2013-01-06 05:04:00,34.1,29.5,30.08,SSW,200,4.0,12.0,83,0.00,,,0.00,WUHU216DAVISVP2,2013-01-06 10:04:00,
2013-01-06 05:09:00,33.9,29.3,30.08,WSW,240,2.0,14.0,83,0.00,,,0.00,WUHU216DAVISVP2,2013-01-06 10:09:00,
2013-01-06 05:14:00,33.8,29.2,30.08,SSE,162,4.0,14.0,83,0.00,,,0.00,WUHU216DAVISVP2,2013-01-06 10:14:00,
2013-01-06 05:19:00,33.7,29.4,30.07,West,269,4.0,18.0,84,0.00,,,0.00,WUHU216DAVISVP2,2013-01-06 10:19:00,
2013-01-06 05:24:00,33.7,29.4,30.07,WSW,252,4.0,18.0,84,0.00,,,0.00,WUHU216DAVISVP2,2013-01-06 10:24:00,
2013-01-06 05:29:00,33.7,29.4,30.07,South,190,8.0,16.0,84,0.00,,,0.00,WUHU216DAVISVP2,2013-01-06 10:29:00,
2013-01-06 05:34:00,33.6,29.3,30.07,WSW,246,6.0,14.0,84,0.00,,,0.00,WUHU216DAVISVP2,2013-01-06 10:34:00,
2013-01-06 05:39:00,33.6,29.3,30.07,WSW,248,6.0,14.0,84,0.00,,,0.00,WUHU216DAVISVP2,2013-01-06 10:39:00,
2013-01-06 05:44:00,33.6,29.3,30.07,SSE,163,6.0,14.0,84,0.00,,,0.00,WUHU216DAVISVP2,2013-01-06 10:44:00,
2013-01-06 05:49:00,33.5,29.2,30.06,SW,229,2.0,14.0,84,0.00,,,0.00,WUHU216DAVISVP2,2013-01-06 10:49:00,
2013-01-06 05:54:00,33.6,29.3,30.06,SW,232,8.0,18.0,84,0.00,,,0.00,WUHU216DAVISVP2,2013-01-06 10:54:00,
2013-01-06 05:59:00,33.6,29.3,30.06,SSW,202,6.0,18.0,84,0.00,,,0.00,WUHU216DAVISVP2,2013-01-06 10:59:00,
2013-01-06 06:04:00,33.6,29.3,30.06,SSW,202,6.0,14.0,84,0.00,,,0.00,WUHU216DAVISVP2,2013-01-06 11:04:00,
2013-01-06 06:09:00,33.7,29.4,30.06,SSE,166,4.0,14.0,84,0.00,,,0.00,WUHU216DAVISVP2,2013-01-06 11:09:00,
2013-01-06 06:14:00,33.7,29.4,30.06,West,261,6.0,18.0,84,0.00,,,0.00,WUHU216DAVISVP2,2013-01-06 11:14:00,
2013-01-06 06:19:00,33.8,29.2,30.06,SSE,159,10.0,18.0,83,0.00,,,0.00,WUHU216DAVISVP2,2013-01-06 11:19:00,
2013-01-06 06:25:00,33.9,29.3,30.06,SSE,157,6.0,18.0,83,0.00,,,0.00,WUHU216DAVISVP2,2013-01-06 11:25:00,
2013-01-06 06:30:00,34.0,29.1,30.06,SW,235,6.0,18.0,82,0.00,,,0.00,WUHU216DAVISVP2,2013-01-06 11:30:00,
2013-01-06 06:35:00,34.0,29.1,30.06,SSW,209,8.0,14.0,82,0.00,,,0.00,WUHU216DAVISVP2,2013-01-06 11:35:00,
2013-01-06 06:40:00,34.1,29.2,30.06,SW,217,4.0,16.0,82,0.00,,,0.00,WUHU216DAVISVP2,2013-01-06 11:40:00,
2013-01-06 06:45:00,34.1,29.2,30.06,WSW,237,12.0,16.0,82,0.00,,,0.00,WUHU216DAVISVP2,2013-01-06 11:45:00,
2013-01-06 06:50:00,34.2,29.3,30.06,SW,235,6.0,14.0,82,0.00,,,0.00,WUHU216DAVISVP2,2013-01-06 11:50:00,
2013-01-06 06:55:00,34.2,29.0,30.06,SSE,163,8.0,14.0,81,0.00,,,0.00,WUHU216DAVISVP2,2013-01-06 11:55:00,
2013-01-06 07:00:00,34.3,29.1,30.06,SSW,194,12.0,14.0,81,0.00,,,0.00,WUHU216DAVISVP2,2013-01-06 12:00:00,
2013-01-06 07:05:00,34.3,29.1,30.06,SW,232,4.0,20.0,81,0.00,,,0.00,WUHU216DAVISVP2,2013-01-06 12:05:00,
2013-01-06 07:10:00,34.2,29.3,30.06,West,265,8.0,24.0,82,0.00,,,0.00,WUHU216DAVISVP2,2013-01-06 12:10:00,
2013-01-06 07:15:00,34.1,29.2,30.06,WSW,248,10.0,24.0,82,0.00,,,0.00,WUHU216DAVISVP2,2013-01-06 12:15:00,
2013-01-06 07:20:00,34.0,29.4,30.06,SSW,200,4.0,14.0,83,0.00,,,0.00,WUHU216DAVISVP2,2013-01-06 12:20:00,
2013-01-06 07:25:00,33.8,29.5,30.06,WNW,288,2.0,14.0,84,0.00,,,0.00,WUHU216DAVISVP2,2013-01-06 12:25:00,
2013-01-06 07:30:00,33.7,29.4,30.06,SSW,213,4.0,12.0,84,0.00,,,0.00,WUHU216DAVISVP2,2013-01-06 12:30:00,
2013-01-06 07:35:00,33.6,29.5,30.06,WSW,252,2.0,18.0,85,0.00,,,0.00,WUHU216DAVISVP2,2013-01-06 12:35:00,
2013-01-06 07:40:00,33.5,29.5,30.06,SSW,213,6.0,18.0,85,0.00,,,0.00,WUHU216DAVISVP2,2013-01-06 12:40:00,
2013-01-06 07:45:00,33.4,29.4,30.06,SW,223,6.0,16.0,85,0.00,,,0.00,WUHU216DAVISVP2,2013-01-06 12:45:00,
2013-01-06 07:50:00,33.4,29.4,30.06,SW,216,2.0,16.0,85,0.00,,,0.00,WUHU216DAVISVP2,2013-01-06 12:50:00,
2013-01-06 07:55:00,33.4,29.6,30.06,WSW,237,8.0,14.0,86,0.00,,,0.00,WUHU216DAVISVP2,2013-01-06 12:55:00,
2013-01-06 08:00:00,33.3,29.3,30.05,SSE,161,10.0,14.0,85,0.00,,,0.00,WUHU216DAVISVP2,2013-01-06 13:00:00,
2013-01-06 08:05:00,33.4,29.4,30.05,South,169,2.0,16.0,85,0.00,,,0.00,WUHU216DAVISVP2,2013-01-06 13:05:00,
2013-01-06 08:10:00,33.4,29.4,30.05,WSW,245,2.0,16.0,85,0.00,,,0.00,WUHU216DAVISVP2,2013-01-06 13:10:00,
2013-01-06 08:15:00,33.4,29.4,30.05,WSW,238,0.0,18.0,85,0.00,,,0.00,WUHU216DAVISVP2,2013-01-06 13:15:00,
2013-01-06 08:20:00,33.4,29.4,30.05,WSW,253,4.0,18.0,85,0.00,,,0.00,WUHU216DAVISVP2,2013-01-06 13:20:00,
2013-01-06 08:25:00,33.4,29.4,30.05,SSW,207,4.0,12.0,85,0.00,,,0.00,WUHU216DAVISVP2,2013-01-06 13:25:00,
2013-01-06 08:31:00,33.5,29.5,30.05,WSW,240,10.0,16.0,85,0.00,,,0.00,WUHU216DAVISVP2,2013-01-06 13:31:00,
2013-01-06 08:36:00,33.5,29.2,30.05,SSE,148,6.0,18.0,84,0.00,,,0.00,WUHU216DAVISVP2,2013-01-06 13:36:00,
2013-01-06 08:41:00,33.5,29.2,30.05,SW,215,0.0,20.0,84,0.00,,,0.00,WUHU216DAVISVP2,2013-01-06 13:41:00,
2013-01-06 08:46:00,33.6,29.3,30.05,WSW,241,8.0,22.0,84,0.00,,,0.00,WUHU216DAVISVP2,2013-01-06 13:46:00,
2013-01-06 08:51:00,33.6,29.3,30.05,SW,227,2.0,22.0,84,0.00,,,0.00,WUHU216DAVISVP2,2013-01-06 13:51:00,
2013-01-06 08:56:00,33.6,29.3,30.06,WSW,244,4.0,14.0,84,0.00,,,0.00,WUHU216DAVISVP2,2013-01-06 13:56:00,
2013-01-06 09:01:00,33.7,29.1,30.06,South,184,6.0,14.0,83,0.00,,,0.00,WUHU216DAVISVP2,2013-01-06 14:01:00,
2013-01-06 09:06:00,33.8,29.2,30.06,WSW,244,16.0,16.0,83,0.00,,,0.00,WUHU216DAVISVP2,2013-01-06 14:06:00,
2013-01-06 09:11:00,33.8,29.2,30.06,SW,227,0.0,16.0,83,0.00,,,0.00,WUHU216DAVISVP2,2013-01-06 14:11:00,
2013-01-06 09:16:00,33.9,29.3,30.06,SSW,192,18.0,18.0,83,0.00,,,0.00,WUHU216DAVISVP2,2013-01-06 14:16:00,
2013-01-06 09:21:00,33.9,29.3,30.06,SSE,162,14.0,20.0,83,0.00,,,0.00,WUHU216DAVISVP2,2013-01-06 14:21:00,
2013-01-06 09:26:00,34.1,29.2,30.06,NW,306,0.0,22.0,82,0.00,,,0.00,WUHU216DAVISVP2,2013-01-06 14:26:00,
2013-01-06 09:31:00,34.1,29.2,30.06,West,262,2.0,22.0,82,0.00,,,0.00,WUHU216DAVISVP2,2013-01-06 14:31:00,
2013-01-06 09:36:00,34.2,29.3,30.06,South,174,2.0,16.0,82,0.00,,,0.00,WUHU216DAVISVP2,2013-01-06 14:36:00,
2013-01-06 09:41:00,34.3,29.4,30.06,SW,225,0.0,16.0,82,0.00,,,0.00,WUHU216DAVISVP2,2013-01-06 14:41:00,
2013-01-06 09:46:00,34.3,29.1,30.06,SW,222,10.0,16.0,81,0.00,,,0.00,WUHU216DAVISVP2,2013-01-06 14:46:00,
2013-01-06 09:51:00,34.5,29.3,30.06,SSW,205,12.0,26.0,81,0.00,,,0.00,WUHU216DAVISVP2,2013-01-06 14:51:00,
2013-01-06 09:56:00,34.5,29.3,30.06,SW,236,4.0,26.0,81,0.00,,,0.00,WUHU216DAVISVP2,2013-01-06 14:56:00,
2013-01-06 10:01:00,34.6,29.4,30.06,WNW,286,4.0,18.0,81,0.00,,,0.00,WUHU216DAVISVP2,2013-01-06 15:01:00,
2013-01-06 10:06:00,34.7,29.5,30.06,SW,221,10.0,16.0,81,0.00,,,0.00,WUHU216DAVISVP2,2013-01-06 15:06:00,
2013-01-06 10:11:00,34.8,29.6,30.06,South,180,4.0,22.0,81,0.00,,,0.00,WUHU216DAVISVP2,2013-01-06 15:11:00,
2013-01-06 10:17:00,34.8,29.3,30.06,SW,236,0.0,22.0,80,0.00,,,0.00,WUHU216DAVISVP2,2013-01-06 15:17:00,
2013-01-06 10:22:00,34.9,29.4,30.06,SW,215,8.0,16.0,80,0.00,,,0.00,WUHU216DAVISVP2,2013-01-06 15:22:00,
2013-01-06 10:27:00,35.0,29.5,30.06,SW,225,2.0,18.0,80,0.00,,,0.00,WUHU216DAVISVP2,2013-01-06 15:27:00,
2013-01-06 10:32:00,35.1,29.6,30.06,SSW,211,6.0,18.0,80,0.00,,,0.00,WUHU216DAVISVP2,2013-01-06 15:32:00,
2013-01-06 10:37:00,35.2,29.4,30.05,WSW,248,12.0,24.0,79,0.00,,,0.00,WUHU216DAVISVP2,2013-01-06 15:37:00,
2013-01-06 10:42:00,35.3,29.5,30.05,SSW,193,4.0,24.0,79,0.00,,,0.00,WUHU216DAVISVP2,2013-01-06 15:42:00,
2013-01-06 10:47:00,35.3,29.5,30.05,SW,228,10.0,18.0,79,0.00,,,0.00,WUHU216DAVISVP2,2013-01-06 15:47:00,
2013-01-06 10:52:00,35.3,29.5,30.05,SSW,213,2.0,18.0,79,0.00,,,0.00,WUHU216DAVISVP2,2013-01-06 15:52:00,
2013-01-06 10:57:00,35.4,29.6,30.06,WSW,238,16.0,20.0,79,0.00,,,0.00,WUHU216DAVISVP2,2013-01-06 15:57:00,
2013-01-06 11:02:00,35.5,29.7,30.06,WSW,250,8.0,20.0,79,0.00,,,0.00,WUHU216DAVISVP2,2013-01-06 16:02:00,
2013-01-06 11:07:00,35.6,29.7,30.06,SW,229,10.0,18.0,79,0.00,,,0.00,WUHU216DAVISVP2,2013-01-06 16:07:00,
2013-01-06 11:12:00,35.7,29.5,30.06,SW,214,6.0,18.0,78,0.00,,,0.00,WUHU216DAVISVP2,2013-01-06 16:12:00,
2013-01-06 11:17:00,35.7,29.8,30.06,WNW,291,6.0,12.0,79,0.00,,,0.00,WUHU216DAVISVP2,2013-01-06 16:17:00,
2013-01-06 11:22:00,35.7,29.8,30.06,South,184,4.0,12.0,79,0.00,,,0.00,WUHU216DAVISVP2,2013-01-06 16:22:00,
2013-01-06 11:27:00,35.7,29.8,30.05,SSW,202,8.0,12.0,79,0.00,,,0.00,WUHU216DAVISVP2,2013-01-06 16:27:00,
2013-01-06 11:32:00,35.7,29.8,30.05,West,260,4.0,14.0,79,0.00,,,0.00,WUHU216DAVISVP2,2013-01-06 16:32:00,
2013-01-06 11:37:00,35.7,29.8,30.05,WSW,258,0.0,14.0,79,0.00,,,0.00,WUHU216DAVISVP2,2013-01-06 16:37:00,
2013-01-06 11:42:00,35.7,29.8,30.05,SSW,211,6.0,20.0,79,0.00,,,0.00,WUHU216DAVISVP2,2013-01-06 16:42:00,
2013-01-06 11:47:00,35.7,30.1,30.04,WNW,289,10.0,24.0,80,0.00,,,0.00,WUHU216DAVISVP2,2013-01-06 16:47:00,
2013-01-06 11:52:00,35.8,29.9,30.04,SW,223,12.0,24.0,79,0.00,,,0.00,WUHU216DAVISVP2,2013-01-06 16:52:00,
2013-01-06 11:57:00,35.8,29.9,30.04,SW,233,6.0,18.0,79,0.00,,,0.00,WUHU216DAVISVP2,2013-01-06 16:57:00,
2013-01-06 12:02:00,35.9,30.0,30.03,WNW,282,4.0,16.0,79,0.00,,,0.00,WUHU216DAVISVP2,2013-01-06 17:02:00,
2013-01-06 12:07:00,35.9,30.0,30.03,SW,232,16.0,18.0,79,0.00,,,0.00,WUHU216DAVISVP2,2013-01-06 17:07:00,
2013-01-06 12:13:00,35.9,30.3,30.03,West,260,6.0,18.0,80,0.00,,,0.00,WUHU216DAVISVP2,2013-01-06 17:13:00,
2013-01-06 12:18:00,35.9,30.0,30.03,WSW,252,6.0,18.0,79,0.00,,,0.00,WUHU216DAVISVP2,2013-01-06 17:18:00,
2013-01-06 12:23:00,36.0,30.1,30.03,NW,309,4.0,24.0,79,0.01,,,0.01,WUHU216DAVISVP2,2013-01-06 17:23:00,
2013-01-06 12:28:00,35.9,30.3,30.02,West,263,6.0,24.0,80,0.01,,,0.01,WUHU216DAVISVP2,2013-01-06 17:28:00,
2013-01-06 12:33:00,35.9,30.3,30.02,West,259,6.0,20.0,80,0.01,,,0.01,WUHU216DAVISVP2,2013-01-06 17:33:00,
2013-01-06 12:38:00,35.8,30.5,30.02,WSW,245,6.0,20.0,81,0.01,,,0.01,WUHU216DAVISVP2,2013-01-06 17:38:00,
2013-01-06 12:43:00,35.8,30.5,30.02,West,262,12.0,18.0,81,0.01,,,0.01,WUHU216DAVISVP2,2013-01-06 17:43:00,
2013-01-06 12:48:00,35.8,30.5,30.02,WNW,302,6.0,18.0,81,0.01,,,0.01,WUHU216DAVISVP2,2013-01-06 17:48:00,
2013-01-06 12:53:00,35.9,30.6,30.01,WSW,240,8.0,16.0,81,0.01,,,0.01,WUHU216DAVISVP2,2013-01-06 17:53:00,
2013-01-06 12:58:00,35.9,30.6,30.01,WNW,292,2.0,20.0,81,0.01,,,0.01,WUHU216DAVISVP2,2013-01-06 17:58:00,
2013-01-06 13:03:00,35.9,30.9,30.01,West,275,4.0,20.0,82,0.01,,,0.01,WUHU216DAVISVP2,2013-01-06 18:03:00,
2013-01-06 13:08:00,36.0,31.0,30.01,SW,231,6.0,18.0,82,0.01,,,0.01,WUHU216DAVISVP2,2013-01-06 18:08:00,
2013-01-06 13:13:00,36.1,30.8,30.00,West,262,6.0,18.0,81,0.01,,,0.01,WUHU216DAVISVP2,2013-01-06 18:13:00,
2013-01-06 13:18:00,36.1,30.8,30.01,West,269,6.0,18.0,81,0.01,,,0.01,WUHU216DAVISVP2,2013-01-06 18:18:00,
2013-01-06 13:23:00,36.2,30.9,30.01,West,274,8.0,24.0,81,0.00,,,0.01,WUHU216DAVISVP2,2013-01-06 18:23:00,
2013-01-06 13:28:00,36.2,30.9,30.00,West,264,14.0,24.0,81,0.00,,,0.01,WUHU216DAVISVP2,2013-01-06 18:28:00,
2013-01-06 13:33:00,36.2,30.9,30.00,WNW,285,12.0,24.0,81,0.00,,,0.01,WUHU216DAVISVP2,2013-01-06 18:33:00,
2013-01-06 13:38:00,36.4,31.1,30.00,WNW,292,10.0,24.0,81,0.00,,,0.01,WUHU216DAVISVP2,2013-01-06 18:38:00,
2013-01-06 13:43:00,36.5,30.9,30.00,WSW,244,14.0,18.0,80,0.00,,,0.01,WUHU216DAVISVP2,2013-01-06 18:43:00,
2013-01-06 13:48:00,36.6,31.0,30.00,WSW,248,8.0,18.0,80,0.00,,,0.01,WUHU216DAVISVP2,2013-01-06 18:48:00,
2013-01-06 13:54:00,36.6,31.0,30.00,WSW,254,8.0,14.0,80,0.00,,,0.01,WUHU216DAVISVP2,2013-01-06 18:54:00,
2013-01-06 13:59:00,36.6,31.3,30.00,WNW,293,10.0,20.0,81,0.00,,,0.01,WUHU216DAVISVP2,2013-01-06 18:59:00,
2013-01-06 14:04:00,36.5,31.2,30.01,WSW,242,2.0,20.0,81,0.01,,,0.02,WUHU216DAVISVP2,2013-01-06 19:04:00,
2013-01-06 14:09:00,36.5,31.2,30.01,NW,314,4.0,14.0,81,0.01,,,0.02,WUHU216DAVISVP2,2013-01-06 19:09:00,
2013-01-06 14:14:00,36.5,31.2,30.01,WNW,286,4.0,14.0,81,0.01,,,0.02,WUHU216DAVISVP2,2013-01-06 19:14:00,
2013-01-06 14:19:00,36.4,31.1,30.01,SW,234,10.0,20.0,81,0.01,,,0.02,WUHU216DAVISVP2,2013-01-06 19:19:00,
2013-01-06 14:24:00,36.4,31.1,30.01,WNW,296,6.0,20.0,81,0.01,,,0.02,WUHU216DAVISVP2,2013-01-06 19:24:00,
2013-01-06 14:29:00,36.4,31.1,30.01,WNW,290,6.0,18.0,81,0.02,,,0.03,WUHU216DAVISVP2,2013-01-06 19:29:00,
2013-01-06 14:34:00,36.4,31.1,30.01,WNW,288,6.0,12.0,81,0.02,,,0.03,WUHU216DAVISVP2,2013-01-06 19:34:00,
2013-01-06 14:39:00,36.4,31.1,30.02,WNW,295,4.0,14.0,81,0.02,,,0.03,WUHU216DAVISVP2,2013-01-06 19:39:00,
2013-01-06 14:44:00,36.3,31.0,30.02,West,277,8.0,14.0,81,0.02,,,0.03,WUHU216DAVISVP2,2013-01-06 19:44:00,
2013-01-06 14:49:00,36.4,30.8,30.02,WSW,239,6.0,14.0,80,0.02,,,0.03,WUHU216DAVISVP2,2013-01-06 19:49:00,
2013-01-06 14:54:00,36.3,31.0,30.02,WSW,244,4.0,14.0,81,0.02,,,0.03,WUHU216DAVISVP2,2013-01-06 19:54:00,
2013-01-06 14:59:00,36.3,30.7,30.02,WNW,287,8.0,20.0,80,0.02,,,0.03,WUHU216DAVISVP2,2013-01-06 19:59:00,
2013-01-06 15:04:00,36.4,31.1,30.03,WSW,252,2.0,20.0,81,0.01,,,0.03,WUHU216DAVISVP2,2013-01-06 20:04:00,
2013-01-06 15:09:00,36.3,31.0,30.03,SW,236,16.0,20.0,81,0.01,,,0.03,WUHU216DAVISVP2,2013-01-06 20:09:00,
2013-01-06 15:11:00,36.3,31.0,30.03,SSE,154,2.0,28.0,81,0.01,,,0.03,WUHU216DAVISVP2,2013-01-06 20:11:00,
2013-01-06 15:13:00,36.3,31.0,30.03,NW,321,8.0,28.0,81,0.01,,,0.03,WUHU216DAVISVP2,2013-01-06 20:13:00,
2013-01-06 15:18:00,36.3,31.0,30.03,NW,304,12.0,28.0,81,0.02,,,0.04,WUHU216DAVISVP2,2013-01-06 20:18:00,
2013-01-06 15:23:00,36.3,31.0,30.03,WSW,253,8.0,18.0,81,0.02,,,0.04,WUHU216DAVISVP2,2013-01-06 20:23:00,
2013-01-06 15:28:00,36.2,31.2,30.04,NW,319,8.0,26.0,82,0.01,,,0.04,WUHU216DAVISVP2,2013-01-06 20:28:00,
2013-01-06 15:33:00,36.0,31.3,30.04,West,276,8.0,26.0,83,0.01,,,0.04,WUHU216DAVISVP2,2013-01-06 20:33:00,
2013-01-06 15:38:00,35.9,31.5,30.04,West,265,10.0,18.0,84,0.01,,,0.04,WUHU216DAVISVP2,2013-01-06 20:38:00,
2013-01-06 15:43:00,35.7,31.6,30.05,West,277,4.0,12.0,85,0.01,,,0.04,WUHU216DAVISVP2,2013-01-06 20:43:00,
2013-01-06 15:48:00,35.5,31.7,30.05,WNW,292,8.0,12.0,86,0.01,,,0.04,WUHU216DAVISVP2,2013-01-06 20:48:00,
2013-01-06 15:53:00,35.3,31.8,30.05,SW,216,12.0,16.0,87,0.02,,,0.05,WUHU216DAVISVP2,2013-01-06 20:53:00,
2013-01-06 15:58:00,35.1,31.9,30.05,West,281,4.0,16.0,88,0.02,,,0.05,WUHU216DAVISVP2,2013-01-06 20:58:00,
2013-01-06 16:00:00,35.1,31.9,30.05,West,260,4.0,14.0,88,0.02,,,0.05,WUHU216DAVISVP2,2013-01-06 21:00:00,
2013-01-06 16:05:00,34.9,31.7,30.06,West,267,6.0,14.0,88,0.02,,,0.05,WUHU216DAVISVP2,2013-01-06 21:05:00,
2013-01-06 16:10:00,34.8,31.8,30.06,West,281,4.0,14.0,89,0.02,,,0.05,WUHU216DAVISVP2,2013-01-06 21:10:00,
2013-01-06 16:15:00,34.7,31.7,30.06,West,275,8.0,16.0,89,0.02,,,0.05,WUHU216DAVISVP2,2013-01-06 21:15:00,
2013-01-06 16:20:00,34.7,31.7,30.06,WNW,286,8.0,16.0,89,0.01,,,0.05,WUHU216DAVISVP2,2013-01-06 21:20:00,
2013-01-06 16:25:00,34.6,31.9,30.06,West,259,2.0,16.0,90,0.01,,,0.05,WUHU216DAVISVP2,2013-01-06 21:25:00,
2013-01-06 16:30:00,34.5,31.8,30.07,WSW,255,8.0,14.0,90,0.01,,,0.05,WUHU216DAVISVP2,2013-01-06 21:30:00,
2013-01-06 16:35:00,34.4,31.7,30.07,West,261,2.0,14.0,90,0.01,,,0.05,WUHU216DAVISVP2,2013-01-06 21:35:00,
2013-01-06 16:40:00,34.4,31.7,30.07,WNW,287,2.0,14.0,90,0.01,,,0.05,WUHU216DAVISVP2,2013-01-06 21:40:00,
2013-01-06 16:46:00,34.3,31.9,30.07,West,271,2.0,8.0,91,0.01,,,0.05,WUHU216DAVISVP2,2013-01-06 21:46:00,
2013-01-06 16:51:00,34.3,31.9,30.07,West,268,6.0,16.0,91,0.01,,,0.06,WUHU216DAVISVP2,2013-01-06 21:51:00,
2013-01-06 16:56:00,34.2,31.8,30.08,West,265,4.0,16.0,91,0.01,,,0.06,WUHU216DAVISVP2,2013-01-06 21:56:00,
2013-01-06 17:01:00,34.2,31.8,30.08,West,269,6.0,12.0,91,0.01,,,0.06,WUHU216DAVISVP2,2013-01-06 22:01:00,
2013-01-06 17:06:00,34.2,31.8,30.08,WNW,299,6.0,12.0,91,0.01,,,0.06,WUHU216DAVISVP2,2013-01-06 22:06:00,
2013-01-06 17:11:00,34.2,31.5,30.09,East,92,4.0,14.0,90,0.01,,,0.06,WUHU216DAVISVP2,2013-01-06 22:11:00,
2013-01-06 17:16:00,34.2,31.8,30.09,WNW,287,6.0,14.0,91,0.01,,,0.06,WUHU216DAVISVP2,2013-01-06 22:16:00,
2013-01-06 17:21:00,34.1,31.7,30.09,WSW,254,12.0,12.0,91,0.01,,,0.06,WUHU216DAVISVP2,2013-01-06 22:21:00,
2013-01-06 17:26:00,34.0,31.6,30.09,NW,318,8.0,20.0,91,0.01,,,0.06,WUHU216DAVISVP2,2013-01-06 22:26:00,
2013-01-06 17:31:00,33.9,31.5,30.09,WNW,288,4.0,14.0,91,0.01,,,0.06,WUHU216DAVISVP2,2013-01-06 22:31:00,
2013-01-06 17:36:00,33.9,31.5,30.10,WNW,295,2.0,14.0,91,0.01,,,0.06,WUHU216DAVISVP2,2013-01-06 22:36:00,
2013-01-06 17:41:00,33.8,31.7,30.10,WNW,290,10.0,20.0,92,0.01,,,0.06,WUHU216DAVISVP2,2013-01-06 22:41:00,
2013-01-06 17:46:00,33.8,31.4,30.10,NW,306,10.0,20.0,91,0.01,,,0.06,WUHU216DAVISVP2,2013-01-06 22:46:00,
2013-01-06 17:51:00,33.7,31.3,30.10,NW,321,10.0,20.0,91,0.00,,,0.06,WUHU216DAVISVP2,2013-01-06 22:51:00,
2013-01-06 17:57:00,33.6,31.5,30.11,West,276,4.0,18.0,92,0.00,,,0.06,WUHU216DAVISVP2,2013-01-06 22:57:00,
2013-01-06 18:02:00,33.6,31.5,30.11,WNW,299,10.0,18.0,92,0.00,,,0.06,WUHU216DAVISVP2,2013-01-06 23:02:00,
2013-01-06 18:07:00,33.5,31.4,30.12,WNW,288,12.0,20.0,92,0.00,,,0.06,WUHU216DAVISVP2,2013-01-06 23:07:00,
2013-01-06 18:12:00,33.4,31.3,30.12,NW,308,6.0,20.0,92,0.00,,,0.06,WUHU216DAVISVP2,2013-01-06 23:12:00,
2013-01-06 18:17:00,33.3,31.2,30.13,WNW,296,8.0,20.0,92,0.01,,,0.07,WUHU216DAVISVP2,2013-01-06 23:17:00,
2013-01-06 18:22:00,33.2,31.3,30.13,WSW,241,10.0,16.0,93,0.01,,,0.07,WUHU216DAVISVP2,2013-01-06 23:22:00,
2013-01-06 18:27:00,33.0,31.1,30.13,WNW,302,8.0,18.0,93,0.01,,,0.07,WUHU216DAVISVP2,2013-01-06 23:27:00,
2013-01-06 18:32:00,33.0,31.1,30.14,WNW,291,4.0,18.0,93,0.01,,,0.07,WUHU216DAVISVP2,2013-01-06 23:32:00,
2013-01-06 18:37:00,32.8,31.0,30.14,WNW,301,4.0,34.0,93,0.01,,,0.07,WUHU216DAVISVP2,2013-01-06 23:37:00,
2013-01-06 18:42:00,32.8,31.0,30.14,WNW,298,8.0,34.0,93,0.01,,,0.07,WUHU216DAVISVP2,2013-01-06 23:42:00,
2013-01-06 18:47:00,32.6,30.8,30.14,NW,315,8.0,14.0,93,0.01,,,0.07,WUHU216DAVISVP2,2013-01-06 23:47:00,
2013-01-06 18:52:00,32.5,30.7,30.14,WSW,238,6.0,18.0,93,0.01,,,0.07,WUHU216DAVISVP2,2013-01-06 23:52:00,
2013-01-06 18:57:00,32.5,30.7,30.15,WNW,293,10.0,18.0,93,0.01,,,0.07,WUHU216DAVISVP2,2013-01-06 23:57:00,
2013-01-06 19:02:00,32.5,30.4,30.15,WNW,290,8.0,18.0,92,0.01,,,0.07,WUHU216DAVISVP2,2013-01-07 00:02:00,
2013-01-06 19:07:00,32.5,30.4,30.15,WNW,293,8.0,18.0,92,0.01,,,0.07,WUHU216DAVISVP2,2013-01-07 00:07:00,
2013-01-06 19:12:00,32.5,30.1,30.15,West,277,6.0,18.0,91,0.01,,,0.07,WUHU216DAVISVP2,2013-01-07 00:12:00,
2013-01-06 19:17:00,32.5,30.1,30.16,WNW,291,14.0,18.0,91,0.00,,,0.07,WUHU216DAVISVP2,2013-01-07 00:17:00,
2013-01-06 19:22:00,32.5,29.8,30.16,WSW,257,8.0,18.0,90,0.00,,,0.07,WUHU216DAVISVP2,2013-01-07 00:22:00,
2013-01-06 19:27:00,32.5,29.6,30.16,NNW,332,4.0,18.0,89,0.00,,,0.07,WUHU216DAVISVP2,2013-01-07 00:27:00,
2013-01-06 19:32:00,32.4,29.5,30.16,WNW,297,8.0,18.0,89,0.00,,,0.07,WUHU216DAVISVP2,2013-01-07 00:32:00,
2013-01-06 19:37:00,32.4,29.2,30.16,NW,307,4.0,18.0,88,0.00,,,0.07,WUHU216DAVISVP2,2013-01-07 00:37:00,
2013-01-06 19:43:00,32.4,29.2,30.17,WNW,284,4.0,20.0,88,0.00,,,0.07,WUHU216DAVISVP2,2013-01-07 00:43:00,
2013-01-06 19:48:00,32.3,29.4,30.17,West,279,8.0,20.0,89,0.00,,,0.07,WUHU216DAVISVP2,2013-01-07 00:48:00,
2013-01-06 19:53:00,32.3,29.4,30.17,WNW,302,12.0,14.0,89,0.00,,,0.07,WUHU216DAVISVP2,2013-01-07 00:53:00,
2013-01-06 19:58:00,32.4,29.5,30.17,West,272,14.0,16.0,89,0.00,,,0.07,WUHU216DAVISVP2,2013-01-07 00:58:00,
2013-01-06 20:03:00,32.4,29.7,30.18,WNW,294,10.0,18.0,90,0.00,,,0.07,WUHU216DAVISVP2,2013-01-07 01:03:00,
2013-01-06 20:08:00,32.4,29.7,30.18,WNW,293,2.0,18.0,90,0.00,,,0.07,WUHU216DAVISVP2,2013-01-07 01:08:00,
2013-01-06 20:13:00,32.4,29.7,30.19,North,355,4.0,20.0,90,0.00,,,0.07,WUHU216DAVISVP2,2013-01-07 01:13:00,
2013-01-06 20:18:00,32.5,29.8,30.19,West,275,6.0,20.0,90,0.00,,,0.07,WUHU216DAVISVP2,2013-01-07 01:18:00,
2013-01-06 20:23:00,32.5,29.8,30.19,NW,320,6.0,14.0,90,0.00,,,0.07,WUHU216DAVISVP2,2013-01-07 01:23:00,
2013-01-06 20:28:00,32.6,29.7,30.19,NW,311,10.0,20.0,89,0.00,,,0.07,WUHU216DAVISVP2,2013-01-07 01:28:00,
2013-01-06 20:33:00,32.6,29.7,30.19,NNW,331,6.0,20.0,89,0.00,,,0.07,WUHU216DAVISVP2,2013-01-07 01:33:00,
2013-01-06 20:38:00,32.5,29.6,30.20,WNW,288,2.0,16.0,89,0.00,,,0.07,WUHU216DAVISVP2,2013-01-07 01:38:00,
2013-01-06 20:43:00,32.5,29.6,30.20,WSW,245,4.0,18.0,89,0.00,,,0.07,WUHU216DAVISVP2,2013-01-07 01:43:00,
2013-01-06 20:48:00,32.5,29.6,30.20,WNW,286,10.0,22.0,89,0.00,,,0.07,WUHU216DAVISVP2,2013-01-07 01:48:00,
2013-01-06 20:53:00,32.5,29.6,30.20,WNW,286,4.0,22.0,89,0.00,,,0.07,WUHU216DAVISVP2,2013-01-07 01:53:00,
2013-01-06 20:58:00,32.5,29.6,30.21,NW,304,12.0,16.0,89,0.00,,,0.07,WUHU216DAVISVP2,2013-01-07 01:58:00,
2013-01-06 21:03:00,32.4,29.5,30.21,NW,308,2.0,16.0,89,0.00,,,0.07,WUHU216DAVISVP2,2013-01-07 02:03:00,
2013-01-06 21:08:00,32.4,29.5,30.21,West,280,8.0,18.0,89,0.00,,,0.07,WUHU216DAVISVP2,2013-01-07 02:08:00,
2013-01-06 21:13:00,32.3,29.4,30.21,NW,316,4.0,18.0,89,0.00,,,0.07,WUHU216DAVISVP2,2013-01-07 02:13:00,
2013-01-06 21:18:00,32.3,29.6,30.21,WSW,255,0.0,18.0,90,0.00,,,0.07,WUHU216DAVISVP2,2013-01-07 02:18:00,
2013-01-06 21:24:00,32.2,29.6,30.21,NW,317,16.0,16.0,90,0.00,,,0.07,WUHU216DAVISVP2,2013-01-07 02:24:00,
2013-01-06 21:29:00,32.2,29.6,30.22,NW,315,12.0,20.0,90,0.00,,,0.07,WUHU216DAVISVP2,2013-01-07 02:29:00,
2013-01-06 21:34:00,32.2,29.6,30.22,WSW,252,10.0,22.0,90,0.00,,,0.07,WUHU216DAVISVP2,2013-01-07 02:34:00,
2013-01-06 21:39:00,32.3,29.4,30.22,WNW,300,6.0,22.0,89,0.00,,,0.07,WUHU216DAVISVP2,2013-01-07 02:39:00,
2013-01-06 21:44:00,32.3,29.4,30.22,WNW,302,6.0,18.0,89,0.00,,,0.07,WUHU216DAVISVP2,2013-01-07 02:44:00,
2013-01-06 21:49:00,32.3,29.4,30.22,West,271,6.0,18.0,89,0.00,,,0.07,WUHU216DAVISVP2,2013-01-07 02:49:00,
2013-01-06 21:54:00,32.3,29.4,30.22,NNW,328,6.0,16.0,89,0.00,,,0.07,WUHU216DAVISVP2,2013-01-07 02:54:00,
2013-01-06 21:59:00,32.3,29.4,30.22,WSW,258,18.0,18.0,89,0.00,,,0.07,WUHU216DAVISVP2,2013-01-07 02:59:00,
2013-01-06 22:04:00,32.3,29.4,30.22,WNW,301,10.0,18.0,89,0.00,,,0.07,WUHU216DAVISVP2,2013-01-07 03:04:00,
2013-01-06 22:09:00,32.3,29.4,30.23,West,272,6.0,18.0,89,0.00,,,0.07,WUHU216DAVISVP2,2013-01-07 03:09:00,
2013-01-06 22:14:00,32.2,29.3,30.23,NW,304,4.0,16.0,89,0.00,,,0.07,WUHU216DAVISVP2,2013-01-07 03:14:00,
2013-01-06 22:19:00,32.2,29.3,30.23,West,277,14.0,16.0,89,0.00,,,0.07,WUHU216DAVISVP2,2013-01-07 03:19:00,
2013-01-06 22:24:00,32.1,29.2,30.23,West,264,2.0,16.0,89,0.00,,,0.07,WUHU216DAVISVP2,2013-01-07 03:24:00,
2013-01-06 22:29:00,32.1,29.2,30.24,West,276,2.0,18.0,89,0.00,,,0.07,WUHU216DAVISVP2,2013-01-07 03:29:00,
2013-01-06 22:34:00,32.1,29.2,30.24,WSW,246,12.0,18.0,89,0.00,,,0.07,WUHU216DAVISVP2,2013-01-07 03:34:00,
2013-01-06 22:39:00,32.1,29.2,30.24,West,274,6.0,18.0,89,0.00,,,0.07,WUHU216DAVISVP2,2013-01-07 03:39:00,
2013-01-06 22:45:00,32.1,29.2,30.25,NW,306,6.0,18.0,89,0.00,,,0.07,WUHU216DAVISVP2,2013-01-07 03:45:00,
2013-01-06 22:50:00,32.0,29.1,30.25,West,278,4.0,18.0,89,0.00,,,0.07,WUHU216DAVISVP2,2013-01-07 03:50:00,
2013-01-06 22:55:00,32.0,29.1,30.25,West,281,6.0,14.0,89,0.00,,,0.07,WUHU216DAVISVP2,2013-01-07 03:55:00,
2013-01-06 23:00:00,32.0,29.1,30.26,West,265,8.0,12.0,89,0.00,,,0.07,WUHU216DAVISVP2,2013-01-07 04:00:00,
2013-01-06 23:05:00,32.0,29.1,30.26,NW,321,8.0,14.0,89,0.00,,,0.07,WUHU216DAVISVP2,2013-01-07 04:05:00,
2013-01-06 23:10:00,31.9,29.0,30.26,WNW,298,2.0,14.0,89,0.00,,,0.07,WUHU216DAVISVP2,2013-01-07 04:10:00,
2013-01-06 23:15:00,31.9,29.0,30.27,WSW,238,6.0,12.0,89,0.00,,,0.07,WUHU216DAVISVP2,2013-01-07 04:15:00,
2013-01-06 23:20:00,31.8,29.2,30.27,West,277,8.0,18.0,90,0.00,,,0.07,WUHU216DAVISVP2,2013-01-07 04:20:00,
2013-01-06 23:25:00,31.8,29.2,30.27,WNW,298,4.0,18.0,90,0.00,,,0.07,WUHU216DAVISVP2,2013-01-07 04:25:00,
2013-01-06 23:30:00,31.8,29.2,30.27,NNW,347,4.0,10.0,90,0.00,,,0.07,WUHU216DAVISVP2,2013-01-07 04:30:00,
2013-01-06 23:35:00,31.8,29.2,30.28,WNW,295,2.0,12.0,90,0.00,,,0.07,WUHU216DAVISVP2,2013-01-07 04:35:00,
2013-01-06 23:40:00,31.8,29.2,30.28,West,281,8.0,12.0,90,0.00,,,0.07,WUHU216DAVISVP2,2013-01-07 04:40:00,
2013-01-06 23:45:00,31.9,29.3,30.28,West,273,8.0,12.0,90,0.00,,,0.07,WUHU216DAVISVP2,2013-01-07 04:45:00,
2013-01-06 23:50:00,31.9,29.3,30.28,West,281,6.0,14.0,90,0.00,,,0.07,WUHU216DAVISVP2,2013-01-07 04:50:00,
2013-01-06 23:55:00,31.9,29.3,30.28,WNW,294,4.0,16.0,90,0.00,,,0.07,WUHU216DAVISVP2,2013-01-07 04:55:00,